QPF
0.00 0.00 0.00 0.00 0.00 0.00 0.00 0.00 0.00 0.00 0.00 0.00 0.00 0.00 0.00 0.00 0.00 0.00 0.00 0.00 0.00 0.00 0.00 0.00 0.00 0.00 0.00 0.00 0.00 0.00 0.00 0.00 0.00 0.00 0.00 0.00 0.00 0.00 0.00 0.00 0.00 0.00 0.00 0.00 0.00
0.00 0.00 0.00 0.00 0.00 0.00 0.00 0.00 0.00 0.00 0.00 0.00 0.00 0.00 0.00 0.00 0.00 0.00 0.00 0.00 0.00 0.00 0.00 0.00 0.00 0.00 0.00 0.00 0.00 0.00 0.00 0.00 0.00 0.00 0.00 0.00 0.00 0.00 0.00 0.00 0.00 0.00 0.00 0.00 0.00
0.00 0.00 0.00 0.00 0.00 0.00 0.00 0.00 0.00 0.00 0.00 0.00 0.00 0.00 0.00 0.00 0.00 0.00 0.00 0.00 0.00 0.00 0.00 0.00 0.00 0.00 0.00 0.00 0.00 0.00 0.00 0.00 0.00 0.00 0.00 0.00 0.00 0.00 0.00 0.00 0.00 0.00 0.00 0.00 0.00
0.00 0.00 0.00 0.00 0.00 0.00 0.00 0.00 0.00 0.00 0.00 0.00 0.00 0.00 0.00 0.00 0.00 0.00 0.00 0.00 0.00 0.00 0.00 0.00 0.00 0.00 0.00 0.00 0.00 0.00 0.00 0.00 0.00 0.00 0.00 0.00 0.00 0.00 0.00 0.00 0.00 0.00 0.00 0.00 0.00
0.00 0.00 0.00 0.00 0.00 0.00 0.00 0.00 0.00 0.00 0.00 0.00 0.00 0.00 0.00 0.00 0.00 0.00 0.00 0.00 0.00 0.00 0.00 0.00 0.00 0.00 0.00 0.00 0.00 0.00 0.00 0.00 0.00 0.00 0.00 0.00 0.00 0.00 0.00 0.00 0.00 0.00 0.00 0.00 0.00
0.00 0.00 0.00 0.00 0.00 0.00 0.00 0.00 0.00 0.00 0.00 0.00 0.00 0.00 0.00 0.00 0.00 0.00 0.00 0.00 0.00 0.00 0.00 0.00 0.00 0.00 0.00 0.00 0.00 0.00 0.00 0.00 0.00 0.00 0.00 0.00 0.00 0.00 0.00 0.00 0.00 0.00 0.00 0.00 0.00
0.00 0.00 0.00 0.00 0.00 0.00 0.00 0.00 0.00 0.00 0.00 0.00 0.00 0.00 0.00 0.00 0.00 0.00 0.00 0.00 0.00 0.00 0.00 0.00 0.00 0.00 0.00 0.00 0.00 0.00 0.00 0.00 0.00 0.00 0.00 0.00 0.00 0.00 0.00 0.00 0.00 0.00 0.00 0.00 0.00
0.00 0.00 0.00 0.00 0.00 0.00 0.00 0.00 0.00 0.00 0.00 0.00 0.00 0.00 0.00 0.00 0.00 0.00 0.00 0.00 0.00 0.00 0.00 0.00 0.00 0.00 0.00 0.00 0.00 0.00 0.00 0.00 0.00 0.00 0.00 0.00 0.00 0.00 0.00 0.00 0.00 0.00 0.00 0.00 0.00
0.00 0.00 0.00 0.00 0.00 0.00 0.00 0.00 0.00 0.00 0.00 0.00 0.00 0.00 0.00 0.00 0.00 0.00 0.00 0.00 0.00 0.00 0.00 0.00 0.00 0.00 0.00 0.00 0.00 0.00 0.00 0.00 0.00 0.00 0.00 0.00 0.00 0.00 0.00 0.00 0.00 0.00 0.00 0.00 0.00
0.00 0.00 0.00 0.00 0.00 0.00 0.00 0.00 0.00 0.00 0.00 0.00 0.00 0.00 0.00 0.00 0.00 0.00 0.00 0.00 0.00 0.00 0.00 0.00 0.00 0.00 0.00 0.00 0.00 0.00 0.00 0.00 0.01 0.02 0.01 0.00 0.00 0.00 0.00 0.00 0.00 0.00 0.00 0.00 0.00
0.00 0.00 0.00 0.00 0.00 0.00 0.00 0.00 0.00 0.00 0.00 0.00 0.00 0.00 0.00 0.00 0.00 0.00 0.00 0.00 0.00 0.00 0.00 0.00 0.00 0.00 0.00 0.00 0.00 0.00 0.00 0.00 0.01 0.01 0.00 0.00 0.00 0.00 0.00 0.00 0.00 0.00 0.00 0.00 0.00
0.00 0.00 0.00 0.00 0.00 0.00 0.00 0.00 0.00 0.00 0.00 0.00 0.00 0.00 0.00 0.00 0.00 0.00 0.00 0.00 0.00 0.00 0.00 0.00 0.00 0.00 0.00 0.00 0.00 0.00 0.00 0.00 0.00 0.00 0.00 0.00 0.00 0.00 0.00 0.00 0.00 0.00 0.00 0.00 0.00
0.00 0.00 0.00 0.00 0.00 0.00 0.00 0.00 0.00 0.00 0.00 0.00 0.00 0.00 0.00 0.00 0.00 0.00 0.00 0.00 0.00 0.00 0.00 0.00 0.00 0.00 0.00 0.00 0.00 0.00 0.00 0.00 0.00 0.00 0.00 0.00 0.00 0.00 0.00 0.00 0.00 0.00 0.00 0.00 0.00
0.00 0.00 0.00 0.00 0.00 0.00 0.00 0.00 0.00 0.00 0.00 0.00 0.00 0.00 0.00 0.00 0.00 0.00 0.00 0.00 0.00 0.00 0.00 0.00 0.00 0.00 0.00 0.00 0.00 0.00 0.00 0.00 0.00 0.00 0.00 0.00 0.00 0.00 0.00 0.00 0.00 0.00 0.00 0.00 0.00
0.00 0.00 0.00 0.00 0.00 0.00 0.00 0.00 0.00 0.00 0.00 0.00 0.00 0.00 0.00 0.00 0.00 0.00 0.00 0.00 0.00 0.00 0.00 0.00 0.00 0.00 0.00 0.00 0.00 0.00 0.00 0.00 0.00 0.00 0.00 0.00 0.00 0.00 0.00 0.00 0.00 0.00 0.00 0.00 0.00
0.00 0.00 0.00 0.00 0.00 0.00 0.00 0.00 0.00 0.00 0.00 0.00 0.00 0.00 0.00 0.00 0.00 0.00 0.00 0.00 0.00 0.00 0.00 0.00 0.00 0.00 0.00 0.00 0.00 0.00 0.00 0.00 0.00 0.00 0.00 0.00 0.00 0.00 0.00 0.00 0.00 0.00 0.00 0.00 0.00
0.00 0.00 0.00 0.00 0.00 0.00 0.00 0.00 0.00 0.00 0.00 0.00 0.00 0.00 0.00 0.00 0.00 0.00 0.00 0.00 0.00 0.00 0.00 0.00 0.00 0.00 0.00 0.00 0.00 0.00 0.00 0.00 0.00 0.00 0.00 0.00 0.00 0.00 0.00 0.00 0.00 0.00 0.00 0.00 0.00
0.00 0.00 0.00 0.00 0.00 0.00 0.00 0.00 0.00 0.00 0.00 0.00 0.00 0.00 0.00 0.00 0.00 0.00 0.00 0.00 0.00 0.00 0.00 0.00 0.00 0.00 0.00 0.00 0.00 0.00 0.00 0.00 0.00 0.00 0.00 0.00 0.00 0.00 0.00 0.00 0.00 0.00 0.00 0.00 0.00
0.00 0.00 0.00 0.00 0.00 0.00 0.00 0.00 0.00 0.00 0.00 0.00 0.00 0.00 0.00 0.00 0.00 0.00 0.00 0.00 0.00 0.00 0.00 0.00 0.00 0.00 0.00 0.00 0.00 0.00 0.00 0.00 0.00 0.00 0.00 0.00 0.00 0.00 0.00 0.00 0.00 0.00 0.00 0.00 0.00
0.00 0.00 0.00 0.00 0.00 0.00 0.00 0.00 0.00 0.00 0.00 0.00 0.00 0.00 0.00 0.00 0.00 0.00 0.00 0.00 0.00 0.00 0.00 0.00 0.00 0.00 0.00 0.00 0.00 0.00 0.00 0.00 0.00 0.00 0.00 0.00 0.00 0.00 0.00 0.00 0.00 0.00 0.00 0.00 0.00
0.00 0.00 0.00 0.00 0.00 0.00 0.00 0.00 0.00 0.00 0.00 0.00 0.00 0.00 0.00 0.00 0.00 0.00 0.00 0.00 0.00 0.00 0.00 0.00 0.00 0.00 0.00 0.00 0.00 0.00 0.00 0.00 0.00 0.00 0.00 0.00 0.00 0.00 0.00 0.00 0.00 0.00 0.00 0.00 0.00
0.00 0.00 0.00 0.00 0.00 0.00 0.00 0.00 0.00 0.00 0.00 0.00 0.00 0.00 0.00 0.00 0.00 0.00 0.00 0.00 0.00 0.00 0.00 0.00 0.00 0.00 0.00 0.00 0.00 0.00 0.00 0.00 0.00 0.00 0.00 0.00 0.00 0.00 0.00 0.00 0.00 0.00 0.00 0.00 0.00
0.00 0.00 0.00 0.00 0.00 0.00 0.00 0.00 0.00 0.00 0.00 0.00 0.00 0.00 0.00 0.00 0.00 0.00 0.00 0.00 0.00 0.00 0.00 0.00 0.00 0.00 0.00 0.00 0.00 0.00 0.00 0.00 0.00 0.00 0.00 0.00 0.00 0.00 0.00 0.00 0.00 0.00 0.00 0.00 0.00
0.00 0.00 0.00 0.00 0.00 0.00 0.01 0.00 0.00 0.00 0.00 0.00 0.00 0.00 0.00 0.00 0.00 0.00 0.00 0.00 0.00 0.00 0.00 0.00 0.00 0.00 0.00 0.00 0.00 0.00 0.00 0.00 0.00 0.00 0.00 0.00 0.00 0.00 0.00 0.00 0.00 0.00 0.00 0.00 0.00
0.00 0.00 0.01 0.01 0.00 0.00 0.00 0.00 0.00 0.00 0.00 0.00 0.00 0.00 0.00 0.00 0.00 0.00 0.00 0.00 0.00 0.00 0.00 0.00 0.00 0.00 0.00 0.00 0.00 0.00 0.00 0.00 0.00 0.00 0.00 0.00 0.00 0.00 0.00 0.00 0.00 0.00 0.00 0.00 0.00
0.01 0.06 0.03 0.00 0.00 0.00 0.00 0.00 0.00 0.00 0.00 0.00 0.00 0.00 0.00 0.00 0.00 0.00 0.00 0.00 0.00 0.00 0.00 0.00 0.00 0.00 0.00 0.00 0.00 0.00 0.00 0.00 0.00 0.00 0.00 0.00 0.00 0.00 0.00 0.00 0.00 0.00 0.00 0.00 0.00
0.00 0.01 0.01 0.00 0.00 0.02 0.08 0.05 0.01 0.00 0.00 0.00 0.00 0.00 0.00 0.00 0.00 0.00 0.00 0.00 0.00 0.00 0.00 0.00 0.00 0.00 0.00 0.00 0.00 0.00 0.00 0.00 0.00 0.00 0.00 0.00 0.00 0.00 0.00 0.00 0.00 0.00 0.00 0.00 0.00
MSLP
1019.32 1018.87 1018.36 1017.80 1017.26 1016.74 1016.24 1015.77 1015.29 1014.80 1014.32 1013.72 1013.04 1012.47 1011.66 1011.19 1010.08 1009.56 1008.32 1005.91 1005.97 1006.00 1006.69 1006.62 1006.95 1006.62 1007.15 1007.05 1006.22 1006.09 1007.43 1007.54 1007.84 1008.01 1009.22 1009.70 1009.91 1011.16 1011.94 1012.45 1013.03 1013.61 1014.31 1015.07 1016.16
1019.54 1018.96 1018.39 1017.89 1017.32 1016.73 1016.14 1015.56 1015.06 1014.59 1014.10 1013.68 1013.11 1012.40 1011.82 1011.19 1010.32 1008.45 1005.34 1005.01 1005.64 1005.96 1006.33 1006.16 1006.23 1005.95 1006.31 1006.21 1006.11 1006.22 1006.97 1006.53 1006.65 1007.54 1008.47 1009.34 1009.46 1010.73 1012.21 1013.01 1013.89 1014.25 1015.12 1015.78 1016.18
1019.90 1019.31 1018.63 1017.91 1017.31 1016.72 1016.15 1015.48 1014.88 1014.38 1013.92 1013.48 1013.10 1012.40 1011.71 1011.38 1010.09 1006.50 1004.99 1005.04 1005.69 1005.79 1005.98 1006.01 1005.81 1005.83 1005.47 1005.31 1005.90 1005.98 1006.16 1006.07 1006.62 1006.81 1007.90 1009.10 1010.05 1010.88 1012.24 1013.31 1013.29 1013.78 1015.00 1015.77 1016.37
1020.08 1019.54 1018.96 1018.28 1017.52 1016.80 1016.07 1015.40 1014.76 1014.16 1013.68 1013.28 1012.87 1012.35 1011.42 1011.05 1009.00 1005.43 1005.03 1005.11 1005.90 1005.90 1006.08 1005.79 1005.74 1005.80 1005.70 1004.95 1005.03 1005.40 1005.50 1005.47 1006.27 1006.83 1008.21 1009.14 1010.16 1011.47 1011.96 1012.55 1013.60 1014.21 1015.11 1015.92 1016.47
1020.03 1019.52 1018.95 1018.37 1017.63 1016.92 1016.20 1015.47 1014.79 1014.08 1013.56 1013.05 1012.69 1012.30 1011.20 1010.49 1007.79 1005.37 1005.34 1005.38 1005.82 1005.82 1005.88 1005.65 1005.71 1005.47 1005.43 1005.03 1004.97 1005.40 1005.66 1006.11 1006.46 1007.20 1008.31 1009.56 1010.76 1011.66 1012.77 1013.52 1014.22 1014.85 1015.55 1016.02 1016.42
1020.05 1019.37 1018.78 1018.14 1017.46 1016.68 1015.95 1015.18 1014.58 1014.05 1013.49 1013.11 1012.74 1012.46 1011.92 1009.92 1006.08 1005.44 1005.56 1005.50 1005.76 1005.83 1005.49 1005.44 1005.46 1005.37 1005.20 1005.37 1005.42 1005.54 1005.77 1006.61 1007.00 1007.87 1009.10 1010.01 1011.61 1011.97 1013.71 1014.05 1014.68 1015.26 1015.67 1016.03 1016.36
1020.03 1019.40 1018.59 1017.84 1017.15 1016.37 1015.58 1014.82 1014.01 1013.43 1012.95 1012.79 1012.63 1012.40 1011.45 1007.85 1005.62 1005.31 1005.67 1005.56 1005.27 1005.45 1005.71 1004.90 1004.94 1005.41 1005.11 1005.43 1005.21 1005.85 1006.41 1007.17 1007.60 1008.13 1009.39 1009.79 1011.89 1012.65 1013.45 1014.10 1014.71 1015.17 1015.47 1015.87 1016.16
1019.99 1019.30 1018.60 1017.74 1016.74 1015.97 1015.05 1014.13 1013.22 1012.58 1012.15 1012.16 1012.23 1012.03 1010.16 1006.27 1005.55 1005.44 1005.16 1005.10 1004.58 1004.54 1004.90 1004.40 1004.43 1005.02 1005.50 1005.70 1006.21 1006.91 1007.65 1008.12 1008.31 1008.19 1009.23 1009.61 1012.39 1013.15 1013.65 1013.84 1014.50 1014.80 1015.07 1015.35 1015.69
1019.87 1019.19 1018.41 1017.62 1016.67 1015.59 1014.45 1013.13 1012.02 1011.57 1011.38 1011.71 1011.98 1011.47 1008.69 1005.62 1005.51 1004.26 1004.64 1004.98 1004.70 1004.08 1003.95 1004.13 1004.29 1005.22 1005.83 1006.56 1007.53 1008.10 1008.65 1008.71 1008.23 1008.04 1008.70 1009.72 1012.04 1013.21 1013.58 1013.81 1013.92 1014.08 1014.39 1014.76 1015.16
1019.79 1018.99 1018.25 1017.39 1016.43 1015.44 1013.89 1011.88 1010.82 1011.08 1011.16 1011.19 1010.94 1010.92 1007.35 1005.27 1004.21 1003.62 1003.67 1004.15 1004.65 1004.55 1004.33 1004.24 1004.90 1005.78 1006.65 1007.02 1007.81 1008.08 1008.55 1008.80 1008.23 1007.80 1008.39 1009.63 1010.87 1012.27 1013.06 1013.35 1013.33 1013.57 1013.86 1014.09 1014.39
1019.85 1019.03 1018.02 1017.19 1016.16 1015.25 1014.02 1012.05 1011.72 1011.25 1010.93 1010.29 1009.40 1007.98 1005.61 1004.84 1003.81 1003.27 1003.20 1003.77 1004.38 1004.73 1005.06 1004.83 1005.80 1006.15 1006.29 1006.17 1006.33 1006.65 1007.29 1008.15 1008.04 1007.63 1008.38 1009.48 1010.43 1011.49 1012.30 1012.81 1012.99 1013.06 1013.39 1013.61 1013.60
1019.91 1019.11 1018.14 1016.96 1015.95 1015.03 1014.62 1014.21 1014.64 1014.68 1011.63 1008.84 1007.82 1007.12 1005.65 1005.94 1005.39 1003.43 1003.24 1003.97 1004.47 1004.83 1005.10 1005.53 1005.40 1004.99 1005.45 1005.55 1006.10 1006.34 1006.57 1007.27 1007.72 1007.31 1008.69 1009.66 1010.69 1011.03 1011.29 1011.60 1011.73 1012.03 1012.53 1012.76 1013.06
1019.81 1019.28 1018.34 1017.02 1015.50 1014.97 1015.25 1014.06 1013.74 1013.12 1011.69 1007.91 1006.44 1005.38 1004.67 1005.16 1004.71 1003.45 1003.71 1003.39 1003.92 1004.72 1004.94 1005.17 1004.26 1004.50 1004.95 1005.36 1005.09 1005.28 1005.77 1006.11 1006.82 1007.47 1008.10 1009.39 1010.65 1011.06 1010.67 1011.07 1011.57 1011.67 1011.83 1011.87 1012.21
1019.82 1019.30 1018.75 1017.44 1015.83 1016.56 1014.92 1013.67 1013.23 1012.92 1011.65 1007.24 1004.89 1002.89 1003.33 1003.99 1003.55 1002.15 1002.64 1003.48 1003.46 1003.81 1004.74 1004.68 1003.94 1003.86 1004.07 1004.71 1004.79 1004.58 1004.33 1005.18 1006.19 1007.65 1008.23 1008.63 1010.16 1009.83 1009.82 1010.06 1010.50 1010.85 1011.08 1011.19 1011.50
1019.90 1019.31 1018.96 1018.78 1018.49 1017.52 1015.25 1014.14 1013.19 1012.52 1010.53 1004.42 1002.52 1000.67 1000.99 1002.06 1001.64 1000.59 1001.30 1002.50 1002.67 1003.28 1004.04 1003.26 1003.07 1003.02 1003.06 1003.42 1003.78 1003.37 1003.76 1004.56 1005.70 1007.10 1008.39 1008.55 1009.12 1007.95 1008.75 1009.22 1009.12 1009.47 1009.89 1010.00 1010.37
1019.82 1019.14 1018.87 1018.48 1018.51 1016.55 1015.66 1014.47 1013.46 1013.00 1008.85 1004.00 1001.46 1001.21 1001.78 1001.63 1001.23 1000.33 1000.91 1001.73 1001.88 1003.00 1003.18 1003.01 1002.24 1002.26 1001.68 1002.11 1002.94 1002.94 1003.87 1004.15 1005.23 1006.98 1008.73 1007.43 1007.50 1007.36 1006.90 1006.16 1007.09 1007.78 1008.44 1008.83 1009.42
1019.78 1018.87 1018.59 1018.25 1017.50 1016.03 1015.98 1015.34 1014.61 1012.02 1007.38 1004.03 1002.09 1001.57 1001.61 1001.43 1001.53 1000.91 1000.88 1001.47 1001.38 1002.54 1002.92 1002.98 1002.13 1001.43 1001.32 1001.79 1002.24 1003.14 1004.09 1005.41 1006.44 1007.35 1006.29 1005.99 1006.55 1005.21 1004.23 1004.63 1004.98 1006.10 1007.04 1007.71 1008.31
1019.38 1018.40 1017.22 1016.74 1016.30 1016.57 1016.64 1016.31 1014.58 1010.78 1007.85 1004.63 1003.22 1001.91 1001.75 1001.33 1001.60 1001.13 1001.18 1001.41 1001.59 1002.18 1003.10 1003.09 1002.24 1000.87 1000.34 1000.84 1001.33 1002.38 1003.28 1004.57 1005.87 1006.32 1005.68 1005.34 1004.55 1002.42 1001.85 1002.71 1003.58 1004.39 1005.03 1006.42 1007.56
1018.80 1018.06 1017.30 1015.45 1015.46 1016.75 1017.35 1016.47 1013.87 1011.50 1009.00 1007.22 1005.20 1004.37 1002.91 1001.71 1001.26 1001.87 1001.44 1001.17 1001.03 1001.49 1002.07 1002.54 1001.80 1000.26 999.96 1000.14 1000.92 1001.47 1002.65 1002.62 1004.63 1005.84 1005.95 1004.81 1003.04 1001.13 1001.10 1002.36 1003.22 1004.25 1005.19 1005.72 1006.54
1019.28 1018.73 1017.13 1014.84 1015.22 1016.58 1017.40 1016.21 1013.93 1011.71 1010.79 1009.59 1008.29 1006.56 1005.74 1004.65 1003.16 1001.86 1001.38 1000.20 1000.50 1000.46 1000.88 1001.56 1001.90 1000.51 999.65 999.94 1000.20 1001.03 1001.29 1002.94 1004.57 1005.87 1006.16 1004.92 1003.45 1002.58 1002.24 1002.11 1002.73 1003.68 1004.03 1004.62 1005.53
1019.47 1018.94 1015.38 1014.51 1015.08 1016.55 1017.03 1016.15 1014.33 1011.68 1012.32 1011.07 1010.11 1009.64 1008.23 1006.90 1005.16 1003.57 1000.94 999.86 999.70 999.85 1000.49 1001.22 1001.58 1000.82 1000.26 999.81 999.96 1000.94 1001.41 1002.65 1004.01 1005.20 1005.79 1005.33 1003.76 1001.10 1001.11 1001.34 1001.48 1002.14 1002.59 1003.51 1004.31
1020.26 1019.27 1015.19 1014.73 1015.98 1016.70 1016.68 1015.59 1014.50 1012.94 1011.98 1012.06 1011.19 1010.49 1009.52 1008.57 1006.95 1005.05 1001.99 999.98 998.71 998.97 999.74 1000.23 1001.36 1001.48 1000.35 999.43 999.17 1000.07 1000.91 1002.00 1003.93 1005.25 1005.35 1004.44 1002.35 999.72 1000.05 1000.52 1001.20 1001.20 1001.77 1002.40 1002.95
1020.98 1019.19 1015.91 1015.58 1017.10 1017.56 1016.97 1016.12 1015.13 1013.52 1012.07 1011.90 1010.93 1010.37 1009.79 1009.53 1008.75 1005.74 1002.70 999.92 999.50 998.25 998.55 999.59 1000.52 1001.22 1000.73 1000.07 999.35 999.37 1000.17 1001.07 1002.24 1003.42 1004.39 1004.33 1001.60 999.72 999.64 999.81 999.91 1000.33 1001.03 1001.64 1002.37
1021.27 1020.19 1018.44 1017.95 1018.30 1018.23 1018.05 1016.57 1015.09 1013.33 1012.56 1011.72 1011.07 1010.64 1010.19 1009.30 1008.78 1006.07 1003.92 1001.33 999.24 998.51 997.58 998.46 999.42 1000.07 999.86 999.20 999.14 999.41 999.53 1000.05 1001.19 1002.92 1003.61 1002.89 1001.26 999.79 999.12 999.30 999.42 999.52 1000.00 1000.94 1001.83
1021.46 1021.03 1020.57 1019.87 1018.82 1018.79 1018.53 1017.09 1015.67 1014.21 1012.23 1011.77 1010.75 1010.03 1009.80 1009.00 1007.58 1005.92 1004.21 1002.28 999.65 997.98 997.30 997.85 998.72 999.28 999.35 999.06 998.84 998.70 998.80 999.17 1000.17 1000.76 1001.76 1001.32 1001.07 999.36 998.65 998.43 998.48 998.79 999.57 1000.54 1001.41
1021.54 1021.49 1020.94 1020.22 1019.27 1018.71 1018.03 1016.94 1015.52 1014.01 1013.29 1011.64 1010.73 1009.65 1008.48 1007.72 1006.64 1004.90 1003.84 1003.21 1001.31 998.73 997.63 997.32 997.94 998.67 999.21 998.73 998.77 998.76 998.23 997.93 998.50 999.25 999.74 999.86 999.62 998.27 997.85 997.83 998.16 998.65 999.41 1000.12 1000.68
1021.09 1020.86 1020.68 1019.81 1019.03 1018.74 1017.97 1017.02 1015.82 1014.99 1012.41 1011.25 1010.32 1009.53 1007.68 1006.39 1005.33 1004.18 1003.53 1002.80 1001.43 1000.75 999.78 998.28 997.73 998.65 998.77 998.61 998.61 998.44 997.41 997.26 997.24 997.42 998.17 998.53 998.26 997.83 997.87 998.51 997.54 998.36 998.91 999.45 999.97
Thickness
5721 5726 5731 5737 5743 5749 5754 5760 5766 5772 5779 5786 5794 5800 5809 5815 5826 5832 5835 5861 5865 5868 5863 5861 5856 5855 5847 5839 5849 5849 5792 5786 5791 5796 5790 5806 5802 5805 5802 5789 5792 5790 5783 5783 5778
5717 5723 5728 5734 5740 5746 5753 5760 5766 5772 5779 5785 5792 5799 5806 5813 5821 5829 5868 5873 5869 5868 5860 5853 5846 5854 5837 5837 5836 5821 5790 5804 5823 5817 5807 5810 5810 5803 5788 5781 5776 5777 5779 5779 5778
5711 5717 5723 5730 5737 5743 5750 5757 5764 5771 5777 5783 5789 5797 5805 5810 5816 5837 5869 5871 5868 5868 5865 5860 5857 5849 5836 5843 5828 5821 5801 5826 5825 5832 5826 5811 5805 5808 5787 5773 5782 5778 5775 5776 5772
5705 5711 5717 5724 5731 5739 5746 5754 5762 5770 5776 5782 5788 5795 5806 5811 5787 5854 5869 5871 5866 5867 5860 5855 5848 5832 5826 5831 5842 5820 5835 5839 5834 5834 5821 5812 5813 5795 5797 5791 5790 5785 5779 5773 5768
5701 5706 5712 5718 5726 5733 5741 5749 5756 5765 5772 5780 5785 5792 5805 5800 5816 5859 5863 5865 5864 5863 5852 5847 5837 5835 5823 5833 5840 5830 5834 5837 5839 5834 5826 5820 5804 5796 5786 5790 5787 5781 5775 5771 5769
5696 5702 5708 5715 5722 5730 5738 5746 5753 5760 5767 5774 5780 5786 5793 5787 5847 5855 5860 5862 5858 5855 5853 5849 5840 5845 5831 5830 5828 5841 5837 5829 5832 5826 5817 5803 5794 5798 5783 5788 5780 5775 5772 5772 5770
5690 5696 5704 5711 5719 5727 5735 5743 5752 5759 5766 5771 5775 5782 5787 5811 5847 5853 5854 5856 5864 5860 5845 5857 5856 5839 5841 5829 5849 5840 5820 5822 5823 5822 5811 5817 5785 5781 5790 5788 5778 5775 5776 5775 5774
5683 5689 5697 5706 5715 5723 5733 5743 5752 5760 5766 5770 5772 5778 5783 5834 5843 5850 5856 5855 5868 5870 5862 5863 5863 5848 5838 5842 5830 5816 5804 5786 5816 5820 5816 5812 5762 5784 5793 5789 5780 5782 5781 5781 5779
5676 5682 5690 5699 5709 5719 5730 5743 5755 5760 5766 5767 5767 5774 5783 5833 5832 5853 5854 5845 5854 5866 5871 5867 5858 5835 5835 5810 5790 5790 5773 5781 5802 5827 5817 5806 5772 5786 5793 5789 5785 5790 5789 5788 5786
5666 5675 5683 5692 5702 5713 5726 5744 5757 5757 5760 5764 5771 5764 5798 5807 5835 5849 5855 5850 5841 5845 5845 5844 5827 5807 5805 5796 5760 5782 5783 5779 5790 5819 5819 5800 5789 5793 5795 5792 5792 5793 5794 5794 5793
5653 5662 5674 5684 5695 5705 5716 5734 5733 5739 5752 5754 5765 5781 5806 5820 5841 5842 5852 5841 5838 5829 5805 5825 5797 5784 5805 5815 5814 5817 5801 5786 5800 5825 5814 5799 5795 5796 5799 5796 5795 5796 5796 5797 5800
5637 5648 5659 5672 5685 5696 5702 5709 5704 5707 5726 5767 5777 5787 5803 5802 5797 5826 5844 5815 5809 5799 5814 5803 5787 5820 5824 5825 5818 5810 5805 5794 5807 5828 5809 5796 5789 5806 5808 5805 5808 5805 5804 5804 5806
5619 5629 5642 5657 5674 5684 5686 5698 5705 5717 5717 5754 5776 5787 5793 5796 5794 5809 5823 5824 5811 5798 5801 5789 5818 5832 5823 5814 5813 5814 5802 5805 5804 5818 5819 5804 5787 5795 5814 5814 5811 5812 5814 5815 5813
5600 5610 5620 5637 5654 5653 5676 5691 5699 5708 5689 5740 5762 5794 5798 5798 5789 5827 5831 5817 5811 5800 5802 5800 5830 5824 5820 5810 5817 5795 5834 5828 5819 5800 5772 5814 5756 5794 5813 5810 5813 5814 5816 5818 5819
5579 5589 5598 5609 5612 5628 5659 5673 5688 5697 5665 5769 5775 5816 5810 5792 5814 5823 5842 5818 5804 5806 5800 5804 5817 5818 5815 5820 5831 5825 5841 5833 5828 5810 5800 5799 5776 5803 5816 5806 5816 5821 5825 5830 5830
5560 5571 5580 5588 5596 5621 5637 5655 5669 5656 5661 5747 5783 5777 5775 5788 5803 5820 5815 5824 5828 5806 5808 5815 5842 5832 5840 5846 5838 5847 5835 5830 5829 5799 5758 5805 5794 5791 5816 5835 5834 5835 5838 5841 5840
5540 5553 5561 5570 5577 5606 5616 5628 5625 5630 5717 5745 5762 5770 5769 5771 5785 5794 5795 5786 5784 5768 5768 5802 5811 5837 5846 5824 5837 5829 5810 5770 5767 5759 5775 5806 5800 5813 5852 5860 5858 5848 5850 5851 5851
5523 5536 5548 5559 5571 5581 5590 5598 5603 5663 5692 5739 5746 5761 5758 5771 5772 5784 5780 5777 5789 5787 5769 5767 5767 5820 5844 5829 5815 5814 5820 5766 5756 5765 5791 5820 5799 5839 5879 5882 5878 5870 5871 5865 5856
5510 5523 5529 5546 5554 5556 5558 5558 5604 5639 5682 5688 5717 5723 5745 5766 5771 5767 5768 5776 5794 5792 5774 5760 5775 5838 5844 5851 5837 5824 5804 5837 5798 5800 5789 5809 5841 5874 5881 5874 5874 5865 5865 5863 5862
5489 5496 5505 5527 5531 5534 5528 5554 5590 5630 5645 5665 5669 5692 5693 5706 5727 5752 5754 5789 5786 5804 5811 5797 5775 5820 5844 5848 5845 5827 5847 5813 5789 5774 5776 5793 5816 5823 5845 5862 5869 5864 5868 5871 5871
5474 5477 5504 5514 5520 5509 5512 5536 5578 5617 5618 5637 5642 5650 5671 5686 5704 5711 5754 5791 5801 5803 5806 5797 5786 5800 5827 5813 5819 5816 5814 5814 5806 5791 5766 5764 5792 5853 5864 5870 5872 5876 5883 5880 5878
5451 5455 5492 5503 5492 5486 5508 5535 5559 5585 5607 5614 5635 5643 5653 5666 5679 5696 5731 5768 5807 5812 5787 5803 5774 5769 5790 5838 5851 5834 5824 5816 5779 5788 5784 5782 5798 5881 5880 5878 5879 5883 5889 5890 5892
5433 5446 5478 5485 5463 5464 5487 5512 5533 5564 5586 5595 5620 5636 5648 5650 5653 5695 5732 5776 5777 5802 5795 5799 5766 5748 5776 5806 5830 5823 5828 5823 5810 5802 5787 5778 5803 5881 5880 5880 5890 5888 5892 5894 5895
5425 5430 5445 5454 5453 5466 5461 5485 5513 5550 5566 5582 5603 5622 5629 5640 5653 5679 5709 5749 5776 5790 5815 5811 5771 5777 5759 5797 5816 5813 5826 5832 5818 5784 5788 5795 5827 5861 5878 5871 5881 5893 5899 5897 5896
5418 5427 5432 5426 5443 5442 5446 5474 5490 5517 5551 5560 5587 5611 5618 5626 5650 5677 5703 5730 5766 5790 5803 5800 5774 5778 5802 5813 5820 5821 5826 5828 5814 5818 5802 5828 5827 5856 5873 5878 5888 5897 5899 5896 5892
5416 5417 5425 5428 5435 5442 5450 5460 5485 5509 5527 5550 5576 5601 5620 5631 5655 5679 5698 5707 5725 5764 5787 5792 5772 5782 5784 5806 5810 5808 5822 5838 5834 5826 5829 5832 5836 5873 5887 5892 5892 5895 5896 5892 5893
5415 5417 5417 5426 5435 5438 5447 5457 5475 5483 5520 5548 5565 5579 5611 5645 5670 5688 5700 5711 5730 5732 5744 5770 5790 5763 5766 5800 5802 5776 5808 5823 5838 5849 5843 5826 5849 5877 5879 5883 5897 5893 5897 5898 5900